Location: Châteauvieux
(47.2310°N, 1.3828°E)
Time: 23:19:24
(UTC+00:00)

Cosmos 1766 - Pass Details

Date: 15 May 2026
Orbit: 398 x 405 km, 82.5° (Epoch: 6 June)

Event Time Altitude Azimuth Distance (km) Brightness Sun altitude
Rises 21:49:13 0° 357° (N) 2,367 7.7 -18.3°
Reaches altitude 10° 21:51:21 10° 6° (N) 1,498 6.3 -18.5°
Enters shadow 21:54:24 37° 76° (ENE) 662 3.6 -18.7°
